sat.trackr.live / text

‹ back to catalog

STARLINK-5843

NORAD 57072 · 2023-088AA

PAYLOAD ACTIVE UNKNOWN

§ Identity

Operator
Country
US
Launch date
2023-06-22
Launch site
AFWTR
Launch vehicle
Mass (kg)
RCS (m²)

Purposes: comms

External: N2YO · Heavens-Above · Gunter

§ Orbital elements

Epoch: 2026-09-19T22:08:05.615808Z

Period
94.27 min
Inclination
43.0026°
Eccentricity
0.0001077
Mean motion
15.27576502 rev/d
Perigee alt
482.3 km
Apogee alt
483.8 km
Semi-major
6,861.2 km
B*
1.1070e-6
RAAN
79.3774°
Arg perigee
257.6852°
Mean anomaly
102.3879°
Rev number
17,922

§ Raw data

STARLINK-58431 57072U 23088AA  26262.92228722 -.00000232  00000+0  11070-5 0  99952 57072  43.0026  79.3774 0001077 257.6852 102.3879 15.27576502179226

JSON: /api/v1/satellites/57072 · /tle

For live sub-satellite position, see the globe view (requires WebGL).

§ Visibility from observer

Set your observer location to see the next 7 days of passes ≥ 10°. The values pass through the URL so the page stays shareable.

No JS? Fill the form by hand. The geolocation button needs JavaScript.